Location: Unspecified
(29.9680°N, 0.0000°E)
Time: 14:17:34
(UTC+00:00)

Vanguard 1 Rocket - Pass Details

Date: 26 June 2019
Orbit: 651 x 4225 km, 34.3° (Epoch: 15 July)

Event Time Altitude Azimuth Distance (km) Brightness Sun altitude
Rises 22:36:14 0° 286° (WNW) 4,690 11.5 -32.8°
Reaches altitude 10° 22:40:23 10° 277° (W) 3,178 10.5 -33.1°
Enters shadow 22:43:50 22° 257° (WSW) 2,031 9.2 -33.4°
